EW4164 Weather Reports


time (UTC)temp
C
wind
direction
speed
KPH
gust
KPH
rain 1hr
cm
rain 24hr
cm
rain mn
cm
humidity
%
barometer
mb
20190421010232 13 47 3.2 8.0 0.00 0.00 0.00 47 1021.5
20190421005715 13 11 3.2 8.0 0.00 0.00 0.00 47 1021.5
20190421005229 13 57 3.2 8.0 0.00 0.00 0.00 48 1021.5
20190421004717 13 59 3.2 6.4 0.00 0.00 0.00 49 1021.6
20190421004229 12 69 3.2 6.4 0.00 0.00 0.00 50 1021.6
20190421003713 12 31 1.6 6.4 0.00 0.00 0.00 52 1021.6
20190421003221 11 26 1.6 6.4 0.00 0.00 0.00 54 1021.6
20190421002719 11 27 1.6 6.4 0.00 0.00 0.00 56 1021.7
20190421002221 11 58 0.0 3.2 0.00 0.00 0.00 57 1021.7
20190421001718 11 58 0.0 1.6 0.00 0.00 0.00 57 1021.7
20190421001224 11 58 0.0 3.2 0.00 0.00 0.00 57 1021.7
20190421000711 11 58 0.0 3.2 0.00 0.00 0.00 56 1021.8
20190421000207 11 58 1.6 3.2 0.00 0.00 0.00 55 1021.8
20190420235720 12 58 0.0 3.2 0.00 0.00 0.00 55 1021.8
20190420235207 12 58 0.0 3.2 0.00 0.00 0.00 53 1021.8
20190420234707 12 58 0.0 1.6 0.00 0.00 0.00 50 1021.8
20190420234207 13 58 0.0 1.6 0.00 0.00 0.00 50 1021.7
20190420233712 13 58 0.0 1.6 0.00 0.00 0.00 49 1021.7
20190420233213 13 58 0.0 1.6 0.00 0.00 0.00 48 1021.8
20190420232717 14 58 0.0 3.2 0.00 0.00 0.00 46 1021.8
20190420232207 15 58 0.0 3.2 0.00 0.00 0.00 45 1021.8
20190420231725 15 58 0.0 3.2 0.00 0.00 0.00 43 1021.7
20190420231713 15 58 1.6 6.4 0.00 0.00 0.00 43 1021.8
20190420231216 15 58 1.6 6.4 0.00 0.00 0.00 41 1021.8
20190420230707 16 58 1.6 6.4 0.00 0.00 0.00 39 1021.8
20190420230234 15 58 1.6 6.4 0.00 0.00 0.00 38 1021.7
20190420230220 16 58 3.2 6.4 0.00 0.00 0.00 38 1021.8
20190420225712 15 58 3.2 6.4 0.00 0.00 0.00 38 1021.8
20190420225210 15 59 3.2 6.4 0.00 0.00 0.00 39 1021.8
20190420224706 15 80 1.6 3.2 0.00 0.00 0.00 40 1021.8
20190420224632 14 80 1.6 3.2 0.00 0.00 0.00 41 1021.7
20190420224206 15 80 1.6 3.2 0.00 0.00 0.00 41 1021.8
20190420223723 15 80 1.6 3.2 0.00 0.00 0.00 41 1021.8
20190420223217 15 80 0.0 4.8 0.00 0.00 0.00 41 1021.9
20190420223150 15 80 0.0 3.2 0.00 0.00 0.00 41 1021.8
20190420222707 15 80 1.6 4.8 0.00 0.00 0.00 40 1021.9
20190420222215 15 80 1.6 4.8 0.00 0.00 0.00 40 1021.9
20190420221720 15 80 0.0 4.8 0.00 0.00 0.00 41 1021.9
20190420221604 15 80 0.0 4.8 0.00 0.00 0.00 41 1021.9
20190420221221 15 80 1.6 4.8 0.00 0.00 0.00 40 1022.0
20190420220711 15 43 1.6 4.8 0.00 0.00 0.00 41 1022.1
20190420220219 15 43 1.6 3.2 0.00 0.00 0.00 41 1022.1
20190420220100 15 43 1.6 3.2 0.00 0.00 0.00 42 1022.1
20190420215723 15 43 1.6 3.2 0.00 0.00 0.00 41 1022.2
20190420215207 15 43 1.6 3.2 0.00 0.00 0.00 41 1022.2
20190420214717 14 43 0.0 1.6 0.00 0.00 0.00 42 1022.2
20190420214624 14 43 0.0 3.2 0.00 0.00 0.00 43 1022.2
20190420214228 14 42 0.0 1.6 0.00 0.00 0.00 44 1022.3
20190420213715 14 42 0.0 3.2 0.00 0.00 0.00 44 1022.3
20190420213235 14 42 0.0 6.4 0.00 0.00 0.00 44 1022.4
20190420213127 13 42 0.0 3.2 0.00 0.00 0.00 44 1022.4
20190420212706 14 42 1.6 6.4 0.00 0.00 0.00 44 1022.4
20190420212235 13 42 1.6 6.4 0.00 0.00 0.00 45 1022.4
20190420211711 13 42 0.0 0.0 0.00 0.00 0.00 44 1022.4
20190420211619 13 66 0.0 0.0 0.00 0.00 0.00 46 1022.4
20190420211216 13 66 0.0 0.0 0.00 0.00 0.00 44 1022.4
20190420210717 13 66 0.0 0.0 0.00 0.00 0.00 45 1022.5
20190420210208 14 66 0.0 0.0 0.00 0.00 0.00 45 1022.5
20190420210124 13 66 0.0 0.0 0.00 0.00 0.00 46 1022.4
20190420205707 14 66 0.0 0.0 0.00 0.00 0.00 45 1022.5
20190420205220 14 66 0.0 0.0 0.00 0.00 0.00 45 1022.5
20190420204714 14 66 0.0 0.0 0.00 0.00 0.00 45 1022.5
20190420204659 14 66 0.0 0.0 0.00 0.00 0.00 45 1022.5
20190420204212 14 66 0.0 0.0 0.00 0.00 0.00 46 1022.5
20190420203712 15 66 0.0 0.0 0.00 0.00 0.00 44 1022.6
20190420203227 15 66 0.0 0.0 0.00 0.00 0.00 44 1022.6
20190420203211 15 66 0.0 0.0 0.00 0.00 0.00 45 1022.6
20190420202731 15 66 0.0 0.0 0.00 0.00 0.00 44 1022.5
20190420202207 15 66 0.0 1.6 0.00 0.00 0.00 42 1022.6
20190420201706 15 66 0.0 1.6 0.00 0.00 0.00 42 1022.5
20190420201550 15 66 0.0 0.0 0.00 0.00 0.00 42 1022.5
20190420201219 16 66 0.0 4.8 0.00 0.00 0.00 41 1022.5
20190420200719 16 66 0.0 4.8 0.00 0.00 0.00 41 1022.6
20190420200207 16 66 0.0 4.8 0.00 0.00 0.00 39 1022.6
20190420200057 16 66 1.6 4.8 0.00 0.00 0.00 38 1022.6
20190420195708 17 66 0.0 1.6 0.00 0.00 0.00 38 1022.6
20190420195207 17 66 0.0 3.2 0.00 0.00 0.00 36 1022.6
20190420194712 17 66 0.0 3.2 0.00 0.00 0.00 36 1022.6
20190420194537 17 66 0.0 3.2 0.00 0.00 0.00 37 1022.5
20190420194208 18 66 1.6 3.2 0.00 0.00 0.00 36 1022.6
20190420193729 18 66 0.0 3.2 0.00 0.00 0.00 34 1022.6
20190420193233 18 66 1.6 3.2 0.00 0.00 0.00 34 1022.6
20190420193100 18 66 0.0 3.2 0.00 0.00 0.00 33 1022.6
20190420192707 18 66 1.6 4.8 0.00 0.00 0.00 33 1022.6
20190420192212 18 66 1.6 4.8 0.00 0.00 0.00 33 1022.6
20190420191707 18 66 1.6 4.8 0.00 0.00 0.00 33 1022.6
20190420191527 18 66 1.6 4.8 0.00 0.00 0.00 33 1022.5
20190420191229 18 66 1.6 4.8 0.00 0.00 0.00 33 1022.6
20190420190706 18 66 1.6 4.8 0.00 0.00 0.00 32 1022.6
20190420190219 18 66 1.6 3.2 0.00 0.00 0.00 32 1022.5
20190420190019 18 66 0.0 3.2 0.00 0.00 0.00 32 1022.4
20190420185719 18 66 1.6 3.2 0.00 0.00 0.00 32 1022.6
20190420185215 19 66 0.0 3.2 0.00 0.00 0.00 32 1022.5
20190420184710 19 66 0.0 0.0 0.00 0.00 0.00 32 1022.5
20190420184510 19 66 0.0 0.0 0.00 0.00 0.00 31 1022.4
20190420184220 20 66 0.0 1.6 0.00 0.00 0.00 31 1022.5
20190420183707 20 66 0.0 4.8 0.00 0.00 0.00 31 1022.5
20190420183219 20 66 1.6 8.0 0.00 0.00 0.00 30 1022.4
20190420182717 20 66 3.2 8.0 0.00 0.00 0.00 29 1022.4
20190420182223 21 66 3.2 8.0 0.00 0.00 0.00 29 1022.4
20190420181718 21 51 3.2 9.7 0.00 0.00 0.00 28 1022.4
20190420181214 21 51 3.2 11.3 0.00 0.00 0.00 27 1022.4
20190420180709 21 44 3.2 11.3 0.00 0.00 0.00 27 1022.4
20190420180206 21 57 4.8 14.5 0.00 0.00 0.00 26 1022.4
20190420175707 22 52 4.8 16.1 0.00 0.00 0.00 25 1022.3
20190420175214 22 58 4.8 16.1 0.00 0.00 0.00 25 1022.3
20190420174722 22 66 4.8 16.1 0.00 0.00 0.00 25 1022.3
20190420174206 22 27 6.4 16.1 0.00 0.00 0.00 25 1022.3
20190420173716 22 74 8.0 16.1 0.00 0.00 0.00 24 1022.3
20190420173214 22 73 8.0 16.1 0.00 0.00 0.00 24 1022.3
20190420172707 23 74 8.0 17.7 0.00 0.00 0.00 24 1022.3
20190420172233 23 44 8.0 17.7 0.00 0.00 0.00 24 1022.3
20190420171732 23 51 8.0 19.3 0.00 0.00 0.00 23 1022.3
20190420171217 23 50 8.0 19.3 0.00 0.00 0.00 22 1022.3
20190420170706 23 55 8.0 19.3 0.00 0.00 0.00 22 1022.3
20190420170215 23 53 9.7 19.3 0.00 0.00 0.00 22 1022.3
20190420165713 23 53 9.7 17.7 0.00 0.00 0.00 21 1022.3
20190420165211 23 59 9.7 17.7 0.00 0.00 0.00 22 1022.4
20190420164719 24 40 8.0 17.7 0.00 0.00 0.00 21 1022.4
20190420164207 24 55 8.0 17.7 0.00 0.00 0.00 20 1022.5
20190420163721 24 78 8.0 19.3 0.00 0.00 0.00 18 1022.5
20190420163224 24 49 9.7 22.5 0.00 0.00 0.00 18 1022.6
20190420162707 24 40 11.3 22.5 0.00 0.00 0.00 18 1022.6
20190420162215 24 44 11.3 22.5 0.00 0.00 0.00 19 1022.7
20190420161717 24 57 11.3 22.5 0.00 0.00 0.00 19 1022.6
20190420161213 24 42 11.3 24.1 0.00 0.00 0.00 19 1022.7
20190420160706 24 53 11.3 24.1 0.00 0.00 0.00 19 1022.7
20190420160207 24 44 11.3 22.5 0.00 0.00 0.00 18 1022.7
20190420155716 24 44 9.7 17.7 0.00 0.00 0.00 18 1022.8
20190420155212 25 84 9.7 19.3 0.00 0.00 0.00 19 1022.8
20190420154706 25 46 9.7 22.5 0.00 0.00 0.00 19 1022.9
20190420154218 24 51 9.7 22.5 0.00 0.00 0.00 18 1022.9
20190420153706 24 31 11.3 22.5 0.00 0.00 0.00 18 1023.0
20190420153215 24 68 12.9 22.5 0.00 0.00 0.00 18 1023.0
20190420152707 25 65 11.3 25.7 0.00 0.00 0.00 19 1023.0
20190420152207 25 80 12.9 25.7 0.00 0.00 0.00 18 1023.0
20190420151707 25 33 11.3 25.7 0.00 0.00 0.00 18 1023.0
20190420151217 25 61 9.7 20.9 0.00 0.00 0.00 18 1023.1
20190420150706 25 94 9.7 20.9 0.00 0.00 0.00 18 1023.1
20190420150207 25 59 9.7 20.9 0.00 0.00 0.00 18 1023.2
20190420145711 25 49 11.3 20.9 0.00 0.00 0.00 18 1023.2
20190420145215 25 49 12.9 20.9 0.00 0.00 0.00 18 1023.3
20190420144707 25 15 11.3 19.3 0.00 0.00 0.00 18 1023.4
20190420144207 25 20 9.7 22.5 0.00 0.00 0.00 18 1023.4
20190420143724 25 88 11.3 22.5 0.00 0.00 0.00 19 1023.4
20190420143207 25 73 11.3 22.5 0.00 0.00 0.00 20 1023.5
20190420142706 25 92 9.7 24.1 0.00 0.00 0.00 21 1023.5
20190420142219 25 33 11.3 24.1 0.00 0.00 0.00 21 1023.7
20190420141724 24 45 12.9 24.1 0.00 0.00 0.00 21 1023.8
20190420141221 24 46 12.9 20.9 0.00 0.00 0.00 20 1023.8
20190420140719 24 76 11.3 20.9 0.00 0.00 0.00 21 1023.8
20190420140232 24 57 9.7 24.1 0.00 0.00 0.00 22 1023.9
20190420135706 24 31 9.7 24.1 0.00 0.00 0.00 22 1024.0
20190420135226 24 51 11.3 25.7 0.00 0.00 0.00 22 1024.0
20190420134724 24 88 12.9 25.7 0.00 0.00 0.00 23 1024.0
20190420134221 24 31 14.5 25.7 0.00 0.00 0.00 22 1024.1
20190420133731 24 64 11.3 24.1 0.00 0.00 0.00 22 1024.2
20190420133207 24 83 11.3 20.9 0.00 0.00 0.00 24 1024.2
20190420132715 24 26 11.3 20.9 0.00 0.00 0.00 22 1024.3
20190420132220 24 39 9.7 20.9 0.00 0.00 0.00 22 1024.3
20190420131707 24 65 9.7 20.9 0.00 0.00 0.00 22 1024.4
20190420131223 24 32 11.3 20.9 0.00 0.00 0.00 22 1024.3
20190420130717 24 5 11.3 19.3 0.00 0.00 0.00 22 1024.4
20190420130215 24 42 9.7 19.3 0.00 0.00 0.00 22 1024.5
20190420125706 24 53 9.7 19.3 0.00 0.00 0.00 23 1024.5
20190420125210 24 58 11.3 19.3 0.00 0.00 0.00 23 1024.5
20190420124715 23 57 9.7 19.3 0.00 0.00 0.00 24 1024.6
20190420124207 24 65 9.7 19.3 0.00 0.00 0.00 23 1024.7
20190420123717 23 46 8.0 24.1 0.00 0.00 0.00 24 1024.6
20190420123212 23 51 9.7 24.1 0.00 0.00 0.00 24 1024.7
20190420122716 23 51 12.9 24.1 0.00 0.00 0.00 24 1024.8
20190420122217 23 38 11.3 27.4 0.00 0.00 0.00 24 1024.9
20190420121706 23 47 11.3 27.4 0.00 0.00 0.00 25 1024.8
20190420121218 23 65 11.3 27.4 0.00 0.00 0.00 24 1024.9
20190420120707 23 0 11.3 25.7 0.00 0.00 0.00 25 1025.0
20190420120234 23 50 11.3 25.7 0.00 0.00 0.00 24 1025.1
20190420115707 23 91 11.3 25.7 0.00 0.00 0.00 25 1025.1
20190420115208 23 34 12.9 25.7 0.00 0.00 0.00 24 1025.1
20190420114720 23 74 11.3 22.5 0.00 0.00 0.00 26 1025.0
20190420114207 23 38 9.7 24.1 0.00 0.00 0.00 26 1025.1
20190420113710 23 69 9.7 24.1 0.00 0.00 0.00 29 1025.2
20190420113218 23 50 11.3 24.1 0.00 0.00 0.00 28 1025.2
20190420112706 23 5 9.7 30.6 0.00 0.00 0.00 29 1025.3
20190420112212 22 68 12.9 30.6 0.00 0.00 0.00 30 1025.3
20190420111718 22 46 12.9 30.6 0.00 0.00 0.00 29 1025.4
20190420111213 22 40 12.9 25.7 0.00 0.00 0.00 31 1025.6
20190420110707 22 21 12.9 25.7 0.00 0.00 0.00 31 1025.6
20190420110216 22 23 9.7 27.4 0.00 0.00 0.00 33 1025.6
20190420105710 22 58 12.9 27.4 0.00 0.00 0.00 34 1025.4
20190420105220 21 55 14.5 27.4 0.00 0.00 0.00 33 1025.5
20190420104712 21 71 11.3 20.9 0.00 0.00 0.00 33 1025.5
20190420104207 21 61 9.7 20.9 0.00 0.00 0.00 36 1025.5
20190420103710 21 49 11.3 19.3 0.00 0.00 0.00 37 1025.5
20190420103214 21 71 11.3 19.3 0.00 0.00 0.00 35 1025.6
20190420102709 21 42 9.7 19.3 0.00 0.00 0.00 37 1025.7
20190420102207 21 60 9.7 19.3 0.00 0.00 0.00 37 1025.7
20190420101707 21 29 9.7 19.3 0.00 0.00 0.00 38 1025.7
20190420101233 21 18 8.0 20.9 0.00 0.00 0.00 40 1025.9
20190420100720 20 53 9.7 20.9 0.00 0.00 0.00 38 1025.9
20190420100214 20 21 11.3 17.7 0.00 0.00 0.00 38 1026.0
20190420095711 20 61 9.7 20.9 0.00 0.00 0.00 39 1026.0
20190420095218 20 52 9.7 22.5 0.00 0.00 0.00 38 1026.0
20190420094707 20 51 9.7 22.5 0.00 0.00 0.00 39 1026.0
20190420094207 20 43 9.7 22.5 0.00 0.00 0.00 39 1026.0
20190420093721 20 50 11.3 19.3 0.00 0.00 0.00 40 1026.0
20190420093208 20 76 11.3 19.3 0.00 0.00 0.00 39 1026.1
20190420092724 19 69 11.3 20.9 0.00 0.00 0.00 39 1026.2
20190420092207 19 63 11.3 20.9 0.00 0.00 0.00 39 1026.2
20190420091207 19 63 9.7 20.9 0.00 0.00 0.00 39 1026.3
20190420090708 19 79 9.7 19.3 0.00 0.00 0.00 39 1026.2
20190420090210 19 68 9.7 20.9 0.00 0.00 0.00 41 1026.3
20190420085708 18 42 9.7 25.7 0.00 0.00 0.00 42 1026.3
20190420085215 18 48 9.7 25.7 0.00 0.00 0.00 40 1026.4
20190420084707 18 40 9.7 25.7 0.00 0.00 0.00 41 1026.4
20190420084208 18 81 9.7 20.9 0.00 0.00 0.00 41 1026.4
20190420083706 18 67 9.7 17.7 0.00 0.00 0.00 42 1026.4
20190420083214 18 39 9.7 20.9 0.00 0.00 0.00 42 1026.5
20190420082706 18 41 9.7 20.9 0.00 0.00 0.00 42 1048.1
20190420082212 18 38 9.7 20.9 0.00 0.00 0.00 42 1026.4
20190420081711 18 63 9.7 20.9 0.00 0.00 0.00 41 1026.4
20190420081210 17 54 11.3 19.3 0.00 0.00 0.00 42 1026.5
20190420080713 17 51 9.7 19.3 0.00 0.00 0.00 42 1026.5
20190420080219 17 41 9.7 17.7 0.00 0.00 0.00 41 1026.4
20190420075706 17 75 9.7 17.7 0.00 0.00 0.00 43 1026.5
20190420075207 17 34 11.3 19.3 0.00 0.00 0.00 43 1026.5
20190420074706 17 30 9.7 19.3 0.00 0.00 0.00 43 1026.5
20190420074231 17 61 9.7 19.3 0.00 0.00 0.00 44 1026.6
20190420073718 17 70 9.7 17.7 0.00 0.00 0.00 44 1026.5
20190420073213 17 95 8.0 17.7 0.00 0.00 0.00 46 1026.6
20190420072709 17 51 8.0 17.7 0.00 0.00 0.00 45 1026.6
20190420072224 16 42 9.7 17.7 0.00 0.00 0.00 46 1026.6
20190420071712 16 22 8.0 20.9 0.00 0.00 0.00 46 1026.4
20190420071710 16 35 8.0 17.7 0.00 0.00 0.00 46 1026.5
20190420071219 16 64 9.7 19.3 0.00 0.00 0.00 46 1026.5
20190420070709 16 48 9.7 19.3 0.00 0.00 0.00 46 1026.4
20190420070227 16 74 9.7 19.3 0.00 0.00 0.00 46 1026.5
20190420070208 16 84 11.3 19.3 0.00 0.00 0.00 47 1026.3
20190420065714 16 62 8.0 19.3 0.00 0.00 0.00 47 1026.5
20190420065217 16 95 8.0 19.3 0.00 0.00 0.00 47 1026.4
20190420064713 16 59 8.0 17.7 0.00 0.00 0.00 48 1026.5
20190420064654 16 63 6.4 17.7 0.00 0.00 0.00 48 1026.4
20190420064211 16 67 6.4 14.5 0.00 0.00 0.00 49 1026.5
20190420063709 16 67 6.4 11.3 0.00 0.00 0.00 50 1026.4
20190420063229 15 16 6.4 11.3 0.00 0.00 0.00 50 1026.3
20190420063216 15 36 4.8 9.7 0.00 0.00 0.00 51 1026.3
20190420062709 15 69 4.8 9.7 0.00 0.00 0.00 51 1026.2
20190420062209 15 59 4.8 8.0 0.00 0.00 0.00 53 1026.2
20190420061715 14 67 3.2 6.4 0.00 0.00 0.00 53 1026.2
20190420061207 13 49 3.2 6.4 0.00 0.00 0.00 55 1026.2
20190420060713 13 47 3.2 6.4 0.00 0.00 0.00 57 1026.2
20190420060229 12 49 0.0 4.8 0.00 0.00 0.00 60 1026.2
20190420054712 9 19 0.0 0.0 0.00 0.00 0.00 70 1026.1
20190420054206 9 19 0.0 1.6 0.00 0.00 0.00 70 1026.0
20190420053735 9 19 0.0 1.6 0.00 0.00 0.00 70 1026.0
20190420053207 9 19 0.0 1.6 0.00 0.00 0.00 70 1026.0
20190420053156 9 19 0.0 3.2 0.00 0.00 0.00 70 1026.0
20190420052722 9 19 0.0 3.2 0.00 0.00 0.00 69 1026.0
20190420052211 9 19 0.0 3.2 0.00 0.00 0.00 69 1026.0
20190420051708 9 19 0.0 3.2 0.00 0.00 0.00 69 1026.0
20190420051632 9 19 0.0 3.2 0.00 0.00 0.00 70 1026.0
20190420051207 9 19 0.0 3.2 0.00 0.00 0.00 69 1026.0
20190420050708 9 19 0.0 3.2 0.00 0.00 0.00 69 1025.9
20190420050217 8 19 0.0 0.0 0.00 0.00 0.00 69 1025.8
20190420050213 9 19 0.0 0.0 0.00 0.00 0.00 69 1025.9
20190420045711 9 19 0.0 0.0 0.00 0.00 0.00 69 1025.9
20190420045207 9 19 0.0 3.2 0.00 0.00 0.00 69 1025.9
20190420044715 9 19 0.0 3.2 0.00 0.00 0.00 69 1025.7
20190420044652 8 19 0.0 3.2 0.00 0.00 0.00 68 1025.8
20190420044212 9 19 0.0 3.2 0.00 0.00 0.00 68 1025.7
20190420043711 9 19 0.0 4.8 0.00 0.00 0.00 68 1025.6
20190420043247 9 19 0.0 3.2 0.00 0.00 0.00 68 1025.6
20190420043213 9 19 1.6 4.8 0.00 0.00 0.00 68 1025.5
20190420042707 9 19 1.6 4.8 0.00 0.00 0.00 68 1025.6
20190420042219 9 19 0.0 0.0 0.00 0.00 0.00 68 1025.6
20190420041714 9 20 0.0 0.0 0.00 0.00 0.00 68 1025.6
20190420041615 8 20 0.0 0.0 0.00 0.00 0.00 68 1025.7
20190420041209 9 20 0.0 4.8 0.00 0.00 0.00 68 1025.7
20190420040706 9 20 0.0 4.8 0.00 0.00 0.00 67 1025.6
20190420040210 9 20 0.0 4.8 0.00 0.00 0.00 67 1025.6
20190420040101 8 20 0.0 0.0 0.00 0.00 0.00 67 1025.7
20190420035709 9 20 0.0 4.8 0.00 0.00 0.00 67 1025.6
20190420035207 9 20 0.0 3.2 0.00 0.00 0.00 67 1025.7
20190420034711 9 14 0.0 3.2 0.00 0.00 0.00 67 1025.6
20190420034536 9 14 0.0 3.2 0.00 0.00 0.00 67 1025.7
20190420034216 9 14 0.0 3.2 0.00 0.00 0.00 67 1025.5
20190420033726 9 14 1.6 3.2 0.00 0.00 0.00 66 1025.5
20190420033216 9 0 1.6 3.2 0.00 0.00 0.00 67 1025.5
20190420033038 9 360 1.6 3.2 0.00 0.00 0.00 67 1025.6
20190420032707 9 0 0.0 3.2 0.00 0.00 0.00 67 1025.5
20190420032207 9 0 0.0 0.0 0.00 0.00 0.00 66 1025.5
20190420031715 9 0 0.0 1.6 0.00 0.00 0.00 65 1025.6
20190420031515 9 350 0.0 4.8 0.00 0.00 0.00 66 1025.6
20190420031216 9 355 0.0 1.6 0.00 0.00 0.00 65 1025.6
20190420030707 9 355 0.0 3.2 0.00 0.00 0.00 65 1025.6
20190420030208 9 355 0.0 3.2 0.00 0.00 0.00 64 1025.6
20190420030006 9 355 0.0 3.2 0.00 0.00 0.00 64 1025.6
20190420025707 9 355 0.0 3.2 0.00 0.00 0.00 64 1025.6
20190420025212 9 338 0.0 3.2 0.00 0.00 0.00 64 1025.6
20190420024713 9 338 0.0 3.2 0.00 0.00 0.00 64 1025.6
20190420024215 9 338 1.6 3.2 0.00 0.00 0.00 64 1025.6
20190420023706 10 338 1.6 3.2 0.00 0.00 0.00 64 1025.5
20190420023208 10 338 0.0 3.2 0.00 0.00 0.00 63 1025.5
20190420022711 10 338 0.0 0.0 0.00 0.00 0.00 63 1025.5
20190420022207 10 338 0.0 0.0 0.00 0.00 0.00 62 1025.5
20190420021707 10 338 0.0 0.0 0.00 0.00 0.00 62 1025.5
20190420021213 10 338 0.0 0.0 0.00 0.00 0.00 61 1025.5
20190420020710 10 338 0.0 0.0 0.00 0.00 0.00 61 1025.5
20190420020215 10 338 0.0 1.6 0.00 0.00 0.00 62 1025.4
20190420015714 10 338 0.0 3.2 0.00 0.00 0.00 62 1025.4
20190420015212 10 338 1.6 3.2 0.00 0.00 0.00 61 1025.4
20190420014706 10 338 1.6 3.2 0.00 0.00 0.00 61 1025.4
20190420014207 10 338 1.6 3.2 0.00 0.00 0.00 61 1025.4
20190420013709 10 338 1.6 3.2 0.00 0.00 0.00 61 1025.4
20190420013210 10 338 1.6 3.2 0.00 0.00 0.00 61 1025.4
20190420012709 10 338 0.0 1.6 0.00 0.00 0.00 60 1025.4
20190420012212 10 338 0.0 3.2 0.00 0.00 0.00 60 1025.4
20190420011711 10 338 0.0 3.2 0.00 0.00 0.00 59 1025.4
20190420011206 11 338 0.0 1.6 0.00 0.00 0.00 60 1025.4
20190420010708 11 338 0.0 0.0 0.00 0.00 0.00 58 1025.5